Simultaneous Nadir Overpasses (SNOs) Predictions

Prediction of SNOs between GOES-15 and METOP-C Satellite Orbit:

Table of predicted SNOs for the next 14.0 days since TLE Epoch: 12/17/2022
Index Date Time (GOES-15) GOES-15 Lat,Lon METOP-C Lat,Lon Distance(km) Time Diff (sec)
1 12/17/2022 05:42:45 0.11,-127.38 0.97,-123.55 436.41 80
2 12/18/2022 18:01:37 -0.11,-127.30 0.07,-128.11 91.98 80
3 12/19/2022 17:43:38 -0.11,-127.26 -1.04,-123.11 472.56 80
4 12/21/2022 06:02:37 0.10,-127.21 -0.00,-127.70 56.35 80
5 12/23/2022 17:58:09 -0.09,-127.05 -0.03,-127.25 23.32 80
6 12/26/2022 05:56:29 0.08,-126.94 0.10,-126.84 10.60 80
7 12/28/2022 17:57:20 -0.07,-126.77 -0.16,-126.40 42.61 80
8 12/30/2022 06:16:20 0.06,-126.72 -0.89,-130.99 486.26 80
